TimeMST,TemperatureF,Dew PointF,Humidity,Sea Level PressureIn,VisibilityMPH,Wind Direction,Wind SpeedMPH,Gust SpeedMPH,PrecipitationIn,Events,Conditions,WindDirDegrees,DateUTC
12:52 AM,1.9,-0.0,91,29.98,10.0,Calm,Calm,-,N/A,,Mostly Cloudy,0,2012-12-28 07:52:00
1:52 AM,-2.9,-7.1,82,30.01,10.0,West,3.5,-,N/A,,Partly Cloudy,280,2012-12-28 08:52:00
2:52 AM,-8.0,-11.0,86,30.09,10.0,Calm,Calm,-,N/A,,Clear,0,2012-12-28 09:52:00
3:52 AM,-9.0,-15.0,75,30.13,10.0,Calm,Calm,-,N/A,,Mostly Cloudy,0,2012-12-28 10:52:00
4:16 AM,-14.8,-16.6,92,29.82,10.0,West,3.5,-,N/A,,Overcast,280,2012-12-28 11:16:00
4:52 AM,-9.0,-14.1,79,30.15,10.0,WNW,3.5,-,N/A,,Overcast,290,2012-12-28 11:52:00
5:52 AM,-9.9,-15.0,78,30.22,10.0,Calm,Calm,-,N/A,,Overcast,0,2012-12-28 12:52:00
6:52 AM,-14.8,-20.2,77,29.88,7.0,Calm,Calm,-,N/A,,Clear,0,2012-12-28 13:52:00
7:02 AM,-13.0,-18.4,77,29.88,9.0,Calm,Calm,-,N/A,,Scattered Clouds,0,2012-12-28 14:02:00
7:48 AM,-13.0,-18.4,77,29.90,10.0,WSW,3.5,-,N/A,,Mostly Cloudy,240,2012-12-28 14:48:00
7:52 AM,-11.9,-17.0,78,30.29,10.0,WSW,4.6,-,N/A,,Overcast,250,2012-12-28 14:52:00
8:06 AM,-9.4,-14.8,77,29.91,1.5,West,3.5,-,N/A,,Haze,280,2012-12-28 15:06:00
8:14 AM,-7.6,-11.2,84,29.91,0.5,Calm,Calm,-,N/A,Fog,Light Freezing Fog,0,2012-12-28 15:14:00
8:23 AM,-5.8,-7.6,92,29.92,0.8,Variable,3.5,-,N/A,,Mist,0,2012-12-28 15:23:00
8:34 AM,-5.8,-7.6,92,29.92,-9999.0,North,-9999.0,-,N/A,,Unknown,0,2012-12-28 15:34:00
8:52 AM,1.9,-2.0,83,30.23,9.0,Calm,Calm,-,N/A,,Unknown,0,2012-12-28 15:52:00
9:52 AM,3.0,-0.0,87,30.24,10.0,Calm,Calm,-,N/A,,Clear,0,2012-12-28 16:52:00
10:52 AM,8.6,1.4,73,29.96,10.0,Calm,Calm,-,N/A,,Clear,0,2012-12-28 17:52:00
11:52 AM,14.0,3.9,64,30.19,10.0,Calm,Calm,-,N/A,,Clear,0,2012-12-28 18:52:00
12:52 PM,17.1,3.9,56,30.15,10.0,SSW,3.5,-,N/A,,Clear,200,2012-12-28 19:52:00
1:52 PM,21.0,3.0,46,30.17,10.0,Calm,Calm,-,N/A,,Clear,0,2012-12-28 20:52:00
2:52 PM,21.9,1.0,40,30.21,10.0,Calm,Calm,-,N/A,,Clear,0,2012-12-28 21:52:00
3:52 PM,18.0,3.0,52,30.26,10.0,SW,5.8,-,N/A,,Clear,230,2012-12-28 22:52:00
4:52 PM,10.0,-0.0,64,30.33,10.0,West,6.9,-,N/A,,Clear,260,2012-12-28 23:52:00
5:52 PM,8.1,-0.0,70,30.38,10.0,West,5.8,-,N/A,,Clear,280,2012-12-29 00:52:00
6:52 PM,-2.0,-7.1,79,30.52,10.0,WNW,5.8,-,N/A,,Clear,290,2012-12-29 01:52:00
7:52 PM,-9.0,-13.0,83,30.56,10.0,WNW,5.8,-,N/A,,Clear,290,2012-12-29 02:52:00
8:52 PM,-13.0,-18.0,78,30.53,10.0,Calm,Calm,-,N/A,,Clear,0,2012-12-29 03:52:00
9:52 PM,-16.1,-20.9,79,30.58,10.0,SSW,9.2,-,N/A,,Clear,210,2012-12-29 04:52:00
10:52 PM,-13.0,-18.0,78,30.55,10.0,WSW,5.8,-,N/A,,Clear,250,2012-12-29 05:52:00
11:52 PM,-16.1,-20.0,82,30.55,10.0,SW,3.5,-,N/A,,Clear,230,2012-12-29 06:52:00